Location: Toronto
(43.6667°N, 79.4167°W)
Time: 11:51:41
(UTC-04:00)

X-37B - Pass Details

Date: 24 June 2021
Orbit: 383 x 392 km, 45.0° (Epoch: 01 July)

Event Time Altitude Azimuth Distance (km) Brightness Sun altitude
Rises 00:15:46 0° 268° (W) 2,253 4.6 -21.3°
Reaches altitude 10° 00:17:51 10° 271° (W) 1,401 3.6 -21.4°
Enters shadow 00:19:26 27° 278° (W) 783 2.3 -21.5°
